AirNav   Pilot Hours Calculator
 
 1306 users online  

0IL9 Jack W Watson Airport
De Kalb, Illinois, USA

GOING TO DE KALB?


FAA INFORMATION EFFECTIVE 01 DECEMBER 2022

Location

FAA Identifier: 0IL9
Lat/Long: 41-51-17.1050N 088-47-14.3090W
41-51.285083N 088-47.238483W
41.8547514,-88.7873081
(estimated)
Elevation: 880 ft. / 268 m (estimated)
Variation: 00W (1985)
From city: 4 miles SW of DE KALB, IL
Time zone: UTC -6 (UTC -5 during Daylight Saving Time)
Zip code: 60115

Airport Operations

Airport use: Private use. Permission required prior to landing
Activation date: 03/1967
Control tower: no
ARTCC: CHICAGO CENTER
FSS: KANKAKEE FLIGHT SERVICE STATION
Attendance: UNATNDD
Wind indicator: no
Segmented circle: no

Airport Communications

WX AWOS-3 at DKB (6 nm NE): 119.075 (815-748-2350)
WX AWOS-3 at RPJ (13 nm W): 125.2 (815-562-2955)
WX ASOS at ARR (15 nm E): PHONE 630-466-5622

Nearby radio navigation aids

VOR radial/distance  VOR name  Freq  Var
DPAr262/19.6DUPAGE VOR/DME108.4002E
JOTr309/28.0JOLIET VOR/DME112.3002E
PLLr098/33.6POLO VOR/DME111.2003E

Airport Services

Airframe service: NONE
Powerplant service: NONE

Runway Information

Runway E/W

Dimensions: 2800 x 100 ft. / 853 x 30 m
Surface: turf
RUNWAY E  RUNWAY W
Traffic pattern: leftleft
Obstructions: bldg, markednone

Airport Ownership and Management from official FAA records

Ownership: Privately-owned
Owner: JACK W. WATSON
15320 SOUTH FIRST ST
DE KALB, IL 60115
Phone 815-756-2007
Manager: JACK W. WATSON
15320 SOUTH FIRST ST
DE KALB, IL 60115
Phone 815-756-2007

Airport Operational Statistics

Aircraft based on the field: 2
Single engine airplanes: 2
    

Additional Remarks

FOR CD CTC CHICAGO APCH AT 847-289-0926.

Instrument Procedures

There are no published instrument procedures at 0IL9.

Some nearby airports with instrument procedures:

KDKB - De Kalb Taylor Municipal Airport (6 nm NE)
KRPJ - Rochelle Municipal Airport/Koritz Field (13 nm W)
KARR - Aurora Municipal Airport (15 nm E)
KDPA - DuPage Airport (24 nm E)
KRFD - Chicago/Rockford International Airport (25 nm NW)
 
Loc | Ops | Rwys | IFR | FBO | Links
Com | Nav | Svcs | Stats | Notes
Area around 0IL9 (Jack W Watson Airport)
 
Road maps at: MapQuest Bing Google
 
Aerial photo
No photo
 
Sectional chart

 
Airport distance calculator
Flying to Jack W Watson Airport? Find the distance to fly.

From to 0IL9

Sunrise and sunset
Times for 07-Dec-2022
 Local
(UTC-6)
 Zulu
(UTC)
Morning civil twilight06:3912:39
Sunrise07:1013:10
Sunset16:2322:23
Evening civil twilight16:5422:54

Current date and time
Zulu (UTC)  07-Dec-2022 13:54:45
Local (UTC-6)  07-Dec-2022 07:54:45
 
METAR
KDKB 
6nm NE 
071335Z AUTO 00000KT 1SM BR BKN002 OVC015 01/01 A3020 RMK AO2 T00060006
KRPJ 
13nm W 
071335Z AUTO 00000KT 4SM BR OVC010 03/02 A3021 RMK AO2 T00270022 TSNO
KARR 
15nm E 
071333Z 00000KT 1 1/4SM BR BKN002 OVC017 02/01 A3019 RMK AO2 T00170011
TAF
KDPA 
24nm E 
071120Z 0712/0812 VRB03KT 1/2SM FG OVC003 TEMPO 0712/0714 1/4SM FG VV002 FM071500 33004KT 3SM BR OVC004 FM071800 32008KT P6SM BKN010 FM072100 35006KT P6SM BKN025 FM080200 01005KT P6SM SCT010 BKN020
KRFD 
25nm NW 
071120Z 0712/0812 VRB03KT 6SM BR OVC010 TEMPO 0712/0715 1SM BR OVC005 FM071800 31005KT P6SM BKN015 FM072100 35005KT P6SM BKN025 FM080100 01005KT P6SM SCT025 BKN100
NOTAMs
Click for the latest NOTAMs
NOTAMs are issued by the DoD/FAA and will open in a separate window not controlled by AirNav.

 

 
 

Would you like to see your business listed on this page?

 If your business provides an interesting product or service to pilots, flight crews, aircraft, or users of the Jack W Watson Airport, you should consider listing it here.  To start the listing process, click on the button below
 
Add a business
 

Other Pages about Jack W Watson Airport

Update a link
 
Copyright © AirNav, LLC. All rights reserved. Privacy Policy  Contact